Current Version              Previous Version:    01  02  03  04  05  06  07  08  09  10  11  12  13  14  15  16  17  18  19  20  21  22  23  24  25  26  27  28  29  30  
   31  32  33  34  35  36  37  38  39  40  41  42  43  44  45  46  47  48  49  50  51  52  53  54  55  56  57  58  59  60  

[Printable]
937
ASUS44 KLUB 290501
RWRTX
WEST TEXAS WEATHER ROUNDUP
NATIONAL WEATHER SERVICE LUBBOCK TX
1100 PM CST FRI NOV 28 2014

NOTE: "FAIR" INDICATES FEW OR NO CLOUDS BELOW 12,000 FEET WITH NO
SIGNIFICANT WEATHER AND/OR OBSTRUCTIONS TO VISIBILITY.

TXZ004-006>008-010-012-014-016-OKZ002-290600-
TEXAS PANHANDLE/OKLAHOMA PANHANDLE

CITY           SKY/WX    TMP DP  RH WIND       PRES   REMARKS
AMARILLO       CLEAR     55  21  26 SW16      29.87F
BORGER         PTCLDY    62  17  17 SW20G30   29.80F
CANADIAN       PTCLDY    51  24  34 SW3       29.76F
DALHART        PTCLDY    56  14  19 SW18      29.85F
DUMAS            N/A     51  20  30 SW16      29.83S
GUYMON         MOCLDY    52  19  27 W12       29.75F
HEREFORD       CLEAR     52  25  34 S16       29.91F
$$

TXZ026-029-035-045-048-290600-
SOUTHERN PANHANDLE/SOUTH PLAINS/ROLLING PLAINS

CITY           SKY/WX    TMP DP  RH WIND       PRES   REMARKS
CHILDRESS      PTCLDY    59  26  28 SW14      29.84S
LUBBOCK        PTCLDY    54  22  28 SW13      29.95S
$$

TXZ052-054-060>062-072-078-127-140-154-169-290600-
PERMIAN BASIN/CONCHO VALLEY/BIG COUNTRY/EDWARDS PLATEAU

CITY           SKY/WX    TMP DP  RH WIND       PRES   REMARKS
ABILENE        CLEAR     58  41  53 S18G28    30.00R
JUNCTION       CLEAR     49  42  77 CALM      30.09F
MIDLAND        CLEAR     52  36  54 S10       30.02S
ODESSA         CLEAR     53  34  48 S16       30.03S
SAN ANGELO     CLEAR     57  43  59 S21G26    30.03S
WINK           CLEAR     47  23  38 SE7       30.01S
$$

TXZ055-058-074-075-080-082-290600-
FAR WEST/SOUTHWEST MOUNTAINS/TRANS PECOS

CITY           SKY/WX    TMP DP  RH WIND       PRES   REMARKS
DRYDEN           N/A     51  44  77 N9        30.07F
EL PASO        PTCLDY    45  20  36 SE3       30.07S
FORT STOCKTON  CLEAR     52  27  38 S10       30.05S
MARFA          PTCLDY    34  16  47 CALM      30.16S
$$

TXZ014-016-019-021>030-083-290600
TEXAS TECH WEST TEXAS MESONET/TEXAS PANHANDLE/NORTHERN SOUTH PLAINS

CITY           SKY/WX    TMP DP  RH WIND       PRES   REMARKS
ABERNATHY 5ENE   N/A     48  24  39 SW13      29.95F
AMARILLO 9NNE    N/A     57  20  24 SW12      29.86S
AMARILLO 7SSE    N/A     56  24  29 SW17      29.89F
AMHERST 1NE      N/A     50  22  33 SW12      29.96S
BOOTLEG 11WNW    N/A     51  22  32 SW18      29.96S
CANADIAN 6E      N/A     57  22  25 W8        29.76S
CAPROCK CYN SP   N/A     64  22  20 SW25G36   29.85F
CHILDRESS 2NNE   N/A     61  26  26 S22       29.81F
CLARENDON 2WSW   N/A     60  23  23 SW18      29.84S
CLAUDE 12SW      N/A     63  23  21 SW15      29.87S
DIMMITT 2NE      N/A     53  22  29 SW21      29.93F
FLOYDADA 2NNE    N/A     49  24  36 SW10      29.93S
FRIONA 2NE       N/A     52  22  31 SW16      29.95F
GOODLETT 3W      N/A     58  29  32 S17       29.82F
HART 3N          N/A     44  24  44 SW10      29.94S
HEREFORD 2NW     N/A     53  22  29 SW17      29.91F
MCLEAN 1E        N/A     59  21  23 SW16      29.80F
MEMPHIS 1NE      N/A     53  27  36 W7        29.82S
MULESHOE 2SSW    N/A     33  21  61 W7        29.97S WCI  26
OLTON 6S         N/A     46  23  40 SW12      29.95S
PALO DURO SP     N/A     58  23  26 W18       29.89S
PAMPA 2E         N/A     59  17  19 SW15      29.81F
PLAINVIEW 1S     N/A     50  25  38 SW9       29.93S
SILVERTON 7ESE   N/A     54  25  32 SW20      29.88F
TULIA 2ENE       N/A     51  25  36 SW20      29.90F
TURKEY 2WSW      N/A     58  25  28 SW13      29.86S
UMBARGER 3NNE    N/A     49  23  36 SW12      29.91S
$$

TXZ033>036-039>041-045>048-290600
TEXAS TECH WEST TEXAS MESONET/SOUTH PLAINS

CITY           SKY/WX    TMP DP  RH WIND       PRES   REMARKS
AIKEN 3WSW       N/A     46  26  45 SW10      29.94F
ANDREWS 2NE      N/A     50  30  45 S8        30.01S
ANTON 6SSW       N/A     49  23  35 SW13      29.96S
BROWNFIELD 2S    N/A     44  23  42 SW12      29.99S
DENVR CTY 7WNW   N/A     45  21  38 SW10      30.00S
GAIL 2ESE        N/A     52  37  58 SW13      29.99S
LAMESA 2SE       N/A     44  34  66 S9        30.01S
LEVELLAND 4S     N/A     49  20  32 SW12      29.97S
LUBBOCK 3WNW     N/A     56  21  25 S15       29.96S
MORTON 1ENE      N/A     52  20  28 SW12      29.97S
ODONNELL 1N      N/A     45  31  60 S8        29.99F
PLAINS 3N        N/A     39  22  50 SW10      29.99F WCI  32
RALLS 1SE        N/A     53  25  33 SW13      29.96S
REESE CENTER     N/A     48  22  34 SW10      29.96S
SEAGRAVES 1SW    N/A     40  22  48 SW8       30.00S WCI  35
SEMINOLE 2NNE    N/A     45  21  38 SW7       30.01S
SLATON 2NE       N/A     51  27  40 SW17      29.96S
SNYDER 3E        N/A     51  39  62 S15       29.99S
SUNDOWN 8SW      N/A     43  22  43 SW13      29.98F
TAHOKA 3NNE      N/A     51  29  43 SW14      29.97S
WOLFFORTH 6SSW   N/A     47  24  39 SW10      29.98F
$$

TXZ031-032-036>038-042>044-290600-
TEXAS TECH WEST TEXAS MESONET/ROLLING PLAINS

CITY           SKY/WX    TMP DP  RH WIND       PRES   REMARKS
ASPERMONT 3NE    N/A     58  38  47 S20       29.92F
FLUVANNA 3WNW    N/A     51  36  55 S15       29.98S
GRAHAM 5SSW      N/A     54  32  43 S6        29.98S
GUTHRIE 10WSW    N/A     58  33  39 SW16      29.90S
HASKELL 1NW      N/A     53  39  58 S14       29.92F
JAYTON 1SSE      N/A     58  37  46 SW15      29.94R
KNOX CITY 3NW    N/A     56  37  49 SW14      29.91R
LK A HENRY 1NW   N/A     57  36  46 SW17      29.95S
NORTHFIELD 1S    N/A     61  26  25 SW10      29.85F
ODELL 4ENE       N/A     57  38  48 S20       29.84F
PADUCAH 10SW     N/A     60  30  31 SW25      29.86F
POST 1NE         N/A     56  32  40 S9        29.95S
RRING SPRGS 3N   N/A     60  25  26 SW14      29.90S
SEYMOUR 3NW      N/A     58  40  50 S15       29.89S
SPUR 1W          N/A     55  32  41 SW9       29.93S
WEINERT 2NNE     N/A     55  39  55 S14       29.91F
WHITE RVR 6NE    N/A     55  29  36 SW16      29.93S
$$

TXZ052-054-060>062-072-078-127-140-154-169-290600-
TEXAS TECH WEST TEXAS MESONET/PERMIAN BASIN/
CONCHO VALLEY/BIG COUNTRY/EDWARDS PLATEAU

CITY           SKY/WX    TMP DP  RH WIND       PRES   REMARKS
COYANOSA 2N      N/A     48  22  35 S7        30.02S
JUNCTION 1SSW    N/A     46  42  85 S3        30.10F
MERTZON 3NNE     N/A     56  42  59 S10       30.06S
SAN ANGELO 7NW   N/A     55  41  58 SW8       30.04S
STRLNG CT 4WSW   N/A     53  43  67 S9        30.04S
ST LAWRNCE 5SW   N/A     51  42  69 S15       30.04S
SWEETWATR 11SW   N/A     53  40  60 S15       30.02S
WALL 1E          N/A     57  42  57 S20       30.03S
$$

TXZ055-058-074-075-080-082-290600-
TEXAS TECH WEST TEXAS MESONET/FAR WEST/SOUTHWEST MOUNTAINS/TRANS PECOS

CITY           SKY/WX    TMP DP  RH WIND       PRES   REMARKS
PRSMN GAP BBNP   N/A     57  32  39 N9        30.08F
GUADLPE MTN NP   N/A     58   6  12 NW9       30.12R
$$